Location: Bucharest
(44.4268°N, 26.1025°E)
Time: 01:37:51
(UTC+03:00)

ESTCUBE 1 - Pass Details

Date: 06 July 2022
Orbit: 645 x 657 km, 97.9° (Epoch: 16 August)

Event Time Altitude Azimuth Distance (km) Brightness Sun altitude
Exits shadow 21:57:46 - 104° (ESE) 2,281 ? -8.5°
Reaches altitude 10° 21:58:41 10° 95° (E) 2,050 ? -8.7°
Maximum altitude 22:01:09 15° 61° (ENE) 1,756 ? -9.0°
Drops below altitude 10° 22:03:37 10° 27° (NNE) 2,061 ? -9.3°
Sets 22:06:42 0° 5° (N) 2,980 ? -9.7°
